Starlink 3389

operational
NORAD ID: 51124 Int'l Des: 2022-005 Owner: SPXS Country: US Constellation: starlink
LEOCIRCULAR

Über Starlink 3389

Beschreibung wird geladen...

Live-Position

3D-Globus wird geladen...

Nächste Überflüge

Höhenverlauf

Altitude vs Time

uPlot chart will show altitude changes over time

Zweizeiliger Elementsatz

1 51124U 22005W 25304.79127362 .00000790 00000-0 67719-4 0 9993
2 51124 53.2163 157.7673 0001704 83.4969 276.6217 15.08839899209284
Epoch: 31. Okt. 2025 • Age: 13 hours

Aktueller Status

Höhe 545.2 km
Geschwindigkeit 7.60 km/s
Subsatellitenpunkt 53.35°N, 84.6°E
Startdatum 19. Jan. 2022
Alter 3.7 years
Typ internet

Technische Details

Klassifizierung Payload
Masse 297.00 kg
Trockenmasse 275.00 kg
Gesamtmasse 297.00 kg
Länge 0.20 m
Durchmesser 2.80 m
Spannweite 9.00 m
Form Box + pan
Hersteller SPXS
Bus-Typ Starlink
Phasenstatus In Orbit
Besitzer/Staat SPXS/US

Große Konstellationen

Loading constellations...